Regional Weather Roundup
Issued by NWS Mt. Holly, NJ

Home | Current Version | Previous Version | Text Only | Print | Product List | Glossary On
Versions: 1 2 3 4 5 6 7 8 9 10 11 12 13 14 15 16 17 18 19 20 21 22 23 24 25 26 27 28 29 30 31 32 33 34 35 36 37 38 39 40 41 42 43 44 45 46 47 48 49 50
000
ASUS41 KPHI 050812
RWRPHI

REGIONAL WEATHER ROUNDUP
NATIONAL WEATHER SERVICE MOUNT HOLLY NJ
400 AM EDT SAT SEP 05 2015

NOTE:  "FAIR" INDICATES FEW OR NO CLOUDS BELOW 12,000 FEET WITH NO
SIGNIFICANT WEATHER AND/OR OBSTRUCTIONS TO VISIBILITY.

 * = STATION DOES NOT REPORT PRECIPITATION (E.G. RAIN, SNOW, ETC.)
        OR FOG.

NJZ015>026-050900-
SOUTHERN NEW JERSEY

CITY           SKY/WX    TMP DP  RH WIND       PRES   REMARKS
POMONA         CLOUDY    73  65  75 NE12      30.17S
WILDWOOD*      MOCLDY    73  66  78 NE12      30.16R
MILLVILLE      MOCLDY    70  65  84 NE8       30.17S
WRIGHTSTOWN    CLOUDY    69  65  90 NE6       30.17S
MOUNT HOLLY    MOCLDY    69  64  84 NE5       30.19S
TRENTON        CLOUDY    69  64  84 E7        30.20S

$$
NJZ001>014-050900-
NORTHERN NEW JERSEY

CITY           SKY/WX    TMP DP  RH WIND       PRES   REMARKS
SUSSEX         MOCLDY    61  60  97 CALM      30.24S FOG
ANDOVER*         N/A     65  64  97 CALM      30.24S
MORRISTOWN     CLOUDY    68  61  77 CALM      30.23R
NEWARK         PTCLDY    70  61  73 NE8       30.22S
TETERBORO      PTCLDY    70  60  70 E6        30.21S
CALDWELL       PTCLDY    68  59  73 E6        30.23S
SOMERVILLE     CLOUDY    66  62  87 CALM      30.21R
ALLAIRE*       MOCLDY    70  59  68 E12       30.20S
TOMS RIVER*    CLOUDY    72  63  73 E10       30.20R

$$
PAZ043-044-047-054-055-060>062-066>071-050900-
EASTERN PENNSYLVANIA

CITY           SKY/WX    TMP DP  RH WIND       PRES   REMARKS
PHILADELPHIA   CLOUDY    73  64  73 NE8       30.20R
NORTH PHILA    MOCLDY    72  61  68 NE7       30.22R
BLUE BELL      PTCLDY    68  64  88 CALM      30.20S
DOYLESTOWN     MOCLDY    66  63  90 CALM      30.21S
QUAKERTOWN*    PTCLDY    66  64  94 CALM      30.23S
POTTSTOWN      CLOUDY    67  65  93 NE3       30.22S
LANCASTER      CLOUDY    70  65  84 E6        30.20R
COATESVILLE    CLOUDY    68  66  94 E9        30.21S
READING        MOCLDY    69  64  84 NE3       30.20S
ALLENTOWN      CLOUDY    70  63  78 E6        30.23R
MOUNT POCONO   CLOUDY    63  61  93 SE8       30.27R
HAZLETON       CLOUDY    64  61  88 SE3       30.28R
WILKES BARRE   PTCLDY    68  62  81 CALM      30.22S

$$
DEZALL-MDZ008-012-015-019-020-050900-
DELAWARE AND EASTERN MARYLAND

CITY           SKY/WX    TMP DP  RH WIND       PRES   REMARKS
WILMINGTON     PTCLDY    71  65  81 NE9       30.19S
DOVER          CLOUDY    73  68  83 NE13      30.14S
GEORGETOWN     CLOUDY    73  68  84 NE10      30.14S
PATUXENT       PTCLDY    73  70  90 NE10      30.13S
OCEAN CITY     CLOUDY    77  69  76 E12G21    30.11R
WALLOPS ISLAND MOCLDY    77  73  87 NE20      30.10R
CAMBRIDGE      PTCLDY    72  68  88 N5        30.13S
SALISBURY      CLOUDY    73  71  93 NE9       30.11S

$$
PAZ001-021-NYZ056-072-MDZ011-DCZ001-050900-
OTHER NEARBY LOCATIONS

CITY           SKY/WX    TMP DP  RH WIND       PRES   REMARKS
HARRISBURG     MOCLDY    73  65  75 E7        30.19R
STATE COLLEGE  CLOUDY    71  66  85 SE5       30.20S
WILLIAMSPORT   MOCLDY    74  65  73 E7G17     30.19R
BINGHAMTON     CLEAR     65  64  97 S5        30.24R FOG
NEW YORK CITY  PTCLDY    70  61  73 VRB5      30.25S
BALTIMORE      CLOUDY    74  66  76 E12       30.16S
WASHINGTON DC  CLOUDY    75  69  81 NE9       30.16R

$$


USA.gov is the U.S. government's official web portal to all federal, state and local government web resources and services.